Time,TemperatureF,DewpointF,PressureIn,WindDirection,WindDirectionDegrees,WindSpeedMPH,WindSpeedGustMPH,Humidity,HourlyPrecipIn,Conditions,Clouds,dailyrainin,SoftwareType,DateUTC
2013-08-17 00:23:00,61.0,56.0,30.19,North,4,0.0,0.0,85,0.00,,,0.00,,2013-08-17 04:23:00,
2013-08-17 00:53:00,62.0,55.0,30.19,East,83,0.0,0.0,78,0.00,,,0.00,,2013-08-17 04:53:00,
2013-08-17 01:22:00,63.0,54.0,30.19,ESE,117,0.0,0.0,73,0.00,,,0.00,,2013-08-17 05:22:00,
2013-08-17 01:52:00,63.0,55.0,30.19,NE,34,0.0,0.0,74,0.00,,,0.00,,2013-08-17 05:52:00,
2013-08-17 02:21:00,63.0,56.0,30.20,ESE,104,0.0,0.0,78,0.00,,,0.00,,2013-08-17 06:21:00,
2013-08-17 02:51:00,61.0,55.0,30.19,ESE,117,0.0,0.0,80,0.00,,,0.00,,2013-08-17 06:51:00,
2013-08-17 03:22:00,61.0,55.0,30.19,NE,44,0.0,0.0,81,0.00,,,0.00,,2013-08-17 07:22:00,
2013-08-17 03:52:00,60.0,55.0,30.20,WSW,243,0.0,0.0,84,0.00,,,0.00,,2013-08-17 07:52:00,
2013-08-17 04:21:00,60.0,54.0,30.21,West,262,0.0,0.0,80,0.00,,,0.00,,2013-08-17 08:21:00,
2013-08-17 04:52:00,61.0,55.0,30.22,West,262,0.0,0.0,82,0.00,,,0.00,,2013-08-17 08:52:00,
2013-08-17 05:21:00,60.0,55.0,30.22,West,262,0.0,0.0,84,0.00,,,0.00,,2013-08-17 09:21:00,
2013-08-17 05:53:00,59.0,54.0,30.22,West,262,0.0,0.0,84,0.00,,,0.00,,2013-08-17 09:53:00,
2013-08-17 06:23:00,59.0,53.0,30.23,West,262,0.0,0.0,81,0.00,,,0.00,,2013-08-17 10:23:00,
2013-08-17 06:52:00,59.0,54.0,30.23,West,262,0.0,0.0,85,0.00,,,0.00,,2013-08-17 10:52:00,
2013-08-17 07:22:00,58.0,56.0,30.24,West,262,0.0,0.0,92,0.00,,,0.00,,2013-08-17 11:22:00,
2013-08-17 07:52:00,58.0,56.0,30.26,West,262,0.0,0.0,93,0.00,,,0.00,,2013-08-17 11:52:00,
2013-08-17 08:21:00,59.0,57.0,30.26,West,262,0.0,0.0,92,0.00,,,0.00,,2013-08-17 12:21:00,
2013-08-17 10:52:00,71.0,55.0,30.25,East,93,0.0,0.0,58,0.00,,,0.00,,2013-08-17 14:52:00,
2013-08-17 11:01:00,71.0,55.0,30.25,East,93,0.0,0.0,58,0.00,,,0.00,,2013-08-17 15:01:00,
2013-08-17 11:22:00,73.0,54.0,30.26,SSW,208,1.0,0.0,52,0.00,,,0.00,,2013-08-17 15:22:00,
2013-08-17 11:54:00,75.0,56.0,30.25,NE,34,4.0,0.0,51,0.00,,,0.00,,2013-08-17 15:54:00,
2013-08-17 12:23:00,75.0,57.0,30.25,NE,55,1.0,0.0,54,0.00,,,0.00,,2013-08-17 16:23:00,
2013-08-17 12:53:00,76.0,55.0,30.25,SE,146,0.0,3.0,48,0.00,,,0.00,,2013-08-17 16:53:00,
2013-08-17 13:23:00,77.0,53.0,30.23,East,93,4.0,0.0,44,0.00,,,0.00,,2013-08-17 17:23:00,
2013-08-17 13:52:00,77.0,55.0,30.23,ESE,114,3.0,0.0,47,0.00,,,0.00,,2013-08-17 17:52:00,
2013-08-17 14:21:00,78.0,57.0,30.23,East,90,2.0,0.0,48,0.00,,,0.00,,2013-08-17 18:21:00,
2013-08-17 14:52:00,76.0,54.0,30.23,ENE,77,0.0,0.0,46,0.00,,,0.00,,2013-08-17 18:52:00,
2013-08-17 15:21:00,77.0,53.0,30.22,East,86,1.0,4.0,44,0.00,,,0.00,,2013-08-17 19:21:00,
2013-08-17 15:52:00,76.0,55.0,30.22,NE,49,2.0,0.0,49,0.00,,,0.00,,2013-08-17 19:52:00,
2013-08-17 16:21:00,76.0,56.0,30.22,SSW,194,0.0,0.0,50,0.00,,,0.00,,2013-08-17 20:21:00,
2013-08-17 16:52:00,76.0,57.0,30.21,South,180,0.0,6.0,51,0.00,,,0.00,,2013-08-17 20:52:00,
2013-08-17 17:21:00,75.0,56.0,30.22,East,86,0.0,2.0,52,0.00,,,0.00,,2013-08-17 21:21:00,
2013-08-17 17:53:00,74.0,57.0,30.22,East,83,0.0,0.0,56,0.00,,,0.00,,2013-08-17 21:53:00,
2013-08-17 18:23:00,73.0,58.0,30.22,ENE,58,0.0,0.0,60,0.00,,,0.00,,2013-08-17 22:23:00,
2013-08-17 18:52:00,71.0,58.0,30.22,ENE,58,0.0,0.0,63,0.00,,,0.00,,2013-08-17 22:52:00,
2013-08-17 19:22:00,71.0,58.0,30.22,WSW,252,0.0,0.0,64,0.00,,,0.00,,2013-08-17 23:22:00,
2013-08-17 19:52:00,69.0,58.0,30.22,NW,312,0.0,5.0,67,0.00,,,0.00,,2013-08-17 23:52:00,
2013-08-17 20:01:00,69.0,58.0,30.22,NW,312,0.0,5.0,67,0.00,,,0.00,,2013-08-18 00:01:00,
2013-08-17 20:21:00,69.0,57.0,30.22,East,82,0.0,5.0,65,0.00,,,0.00,,2013-08-18 00:21:00,
2013-08-17 20:52:00,69.0,56.0,30.22,ENE,65,0.0,0.0,64,0.00,,,0.00,,2013-08-18 00:52:00,
2013-08-17 21:21:00,69.0,56.0,30.21,ESE,121,0.0,0.0,63,0.00,,,0.00,,2013-08-18 01:21:00,
2013-08-17 21:52:00,69.0,56.0,30.22,NE,42,0.0,0.0,63,0.00,,,0.00,,2013-08-18 01:52:00,
2013-08-17 22:21:00,67.0,58.0,30.22,ENE,65,0.0,0.0,73,0.00,,,0.00,,2013-08-18 02:21:00,
2013-08-17 22:52:00,67.0,57.0,30.22,ENE,60,0.0,0.0,71,0.00,,,0.00,,2013-08-18 02:52:00,
2013-08-17 23:21:00,68.0,57.0,30.22,SE,134,5.0,0.0,68,0.00,,,0.00,,2013-08-18 03:21:00,
2013-08-17 23:53:00,68.0,56.0,30.21,South,191,0.0,0.0,66,0.00,,,0.00,,2013-08-18 03:53:00,